Regional Weather Roundup
Issued by NWS Little Rock, AR

Home | Current Version | Previous Version | Text Only | Print | Product List | Glossary On
Versions: 1 2 3 4 5 6 7 8 9 10 11 12 13 14 15 16 17 18 19 20 21 22 23 24 25 26 27
000
ASUS44 KLZK 312205
RWRLZK

WEATHER ROUNDUP FOR ARKANSAS
NATIONAL WEATHER SERVICE LITTLE ROCK AR
500 PM CDT TUE MAY 31 2016

NOTE: "FAIR" INDICATES FEW OR NO CLOUDS BELOW 12,000 FEET WITH NO
SIGNIFICANT WEATHER AND/OR OBSTRUCTIONS TO VISIBILITY.

ARZ001-003-010-029-312300-
NORTHWEST ARKANSAS

CITY           SKY/WX    TMP DP  RH WIND       PRES   REMARKS
FAYETTEVILLE   MOSUNNY   75  69  81 S6        29.88F
FORT SMITH     CLOUDY    76  69  79 N6        29.83F
HARRISON       PTSUNNY   78  66  66 SE6       29.91R
BENTONVILLE    CLOUDY    79  63  57 CALM      29.89F
ROGERS           N/A     77  67  71 SE5       29.89F
SILOAM SPGS    CLOUDY    77  63  61 SE5       29.90S
HIGHFILL       CLOUDY    78  67  68 SE6       29.88F
SPRINGDALE     MOSUNNY   77  66  69 S7        29.90F
$$

ARZ004-005-016-312300-
NORTH CENTRAL ARKANSAS

CITY           SKY/WX    TMP DP  RH WIND       PRES   REMARKS
BATESVILLE     PTSUNNY   82  68  61 E8        29.87F HX  85
FLIPPIN        PTSUNNY  N/A N/A N/A S6        29.86R
MTN HOME       CLOUDY    79  67  66 S8        29.87S
$$

ARZ040-041-312300-
WEST CENTRAL ARKANSAS

CITY           SKY/WX    TMP DP  RH WIND       PRES   REMARKS
MENA           CLOUDY    77  72  83 CALM      29.92R
MOUNT IDA      CLOUDY    78  73  84 CALM      29.87R
$$

ARZ009-017-025-026-028-312300-
NORTHEAST ARKANSAS

CITY           SKY/WX    TMP DP  RH WIND       PRES   REMARKS
CORNING        LGT RAIN  81  68  65 SE5       29.87F
JONESBORO      MOSUNNY   82  65  56 CALM      29.86F
NEWPORT        MOSUNNY   83  68  60 SE7       29.87F HX  86
WALNUT RIDGE   MOSUNNY   82  66  57 SE7       29.86F HX  85
BLYTHEVILLE    CLOUDY    83  66  56 E7        29.87F HX  85
$$

ARZ022-023-033-042-044-312300-
CENTRAL ARKANSAS

CITY           SKY/WX    TMP DP  RH WIND       PRES   REMARKS
LITTLE ROCK    PTSUNNY   85  69  58 S6        29.86S HX  89
N LITTLE ROCK    N/A     82  70  66 E6        29.85S HX  85
JACKSONVILLE   MOSUNNY   84  71  65 SE6       29.86S HX  89
SEARCY         MOSUNNY   84  72  65 S8        29.87F HX  89
HOT SPRINGS    CLOUDY    82  68  62 SE6       29.87S HX  85
RUSSELLVILLE   CLOUDY    80  68  66 S5        29.86S
CLINTON        FAIR      81  72  74 CALM      29.87S
$$

ARZ036-312300-
EAST ARKANSAS

CITY           SKY/WX    TMP DP  RH WIND       PRES   REMARKS
WEST MEMPHIS   MOSUNNY   83  66  56 SE8       29.86F HX  85
$$

ARZ050-053-066-070-073-312300-
SOUTHWEST ARKANSAS

CITY           SKY/WX    TMP DP  RH WIND       PRES   REMARKS
ARKADELPHIA    FAIR      85  73  67 CALM      29.86R HX  91
CAMDEN         PTSUNNY   88  66  48 S6        29.84S HX  90
TEXARKANA      CLOUDY    81  74  79 CALM      29.86R HX  86
EL DORADO      SUNNY     86  66  51 S7        29.85S HX  88
DE QUEEN       TSTM      70  67  90 NW13      29.88R FOG
$$

ARZ056-057-069-312300-
SOUTHEAST ARKANSAS

CITY           SKY/WX    TMP DP  RH WIND       PRES   REMARKS
PINE BLUFF     MOSUNNY   84  70  62 E7        29.85F HX  88
STUTTGART      SUNNY     82  66  57 SE6       29.86F HX  85
MONTICELLO     SUNNY     88  67  49 SW7       29.84F HX  91

$$






USA.gov is the U.S. government's official web portal to all federal, state and local government web resources and services.